Regional Weather Roundup
Issued by NWS

Home | Current Version | Previous Version | Text Only | Print | Product List | Glossary On
Versions: 1 2 3 4 5 6 7 8 9 10 11 12 13 14 15 16 17 18 19 20 21 22 23 24 25 26 27 28 29 30 31 32 33 34 35 36 37 38 39 40 41 42 43 44 45 46 47 48 49 50
461
ASUS44 KJAN 271803
RWRMS

MISSISSIPPI HOURLY WEATHER ROUNDUP
NATIONAL WEATHER SERVICE JACKSON MS
1200 PM CST THU NOV 27 2014

NOTE: "FAIR: INDICATES FEW OR NO CLOUDS BELOW 12,000 FEET WITH NO
SIGNIFICANT WEATHER AND/OR OBSTRUCTIONS TO VISIBILITY.

MSZ001>002-007>008-010>013-018>021-025>028-034>036-271900-
NORTHWEST MISSISSIPPI

CITY           SKY/WX    TMP DP  RH WIND       PRES   REMARKS
CLARKSDALE     FAIR      45  30  57 N9        30.51F
CLEVELAND      CLOUDY    42  32  67 MISG      30.52F
GREENWOOD      PTSUNNY   44  29  55 N9G16     30.51S
6HR MIN TEMP:  36; 6HR MAX TEMP:  46;

GREENVILLE     PTSUNNY   45  30  55 N10       30.52F
6HR MIN TEMP:  36; 6HR MAX TEMP:  46;

GRENADA        MOCLDY    45  30  57 N6        30.49F
OLIVE BRANCH   PTSUNNY   39  32  75 N9        30.49F WCI  33
OXFORD         CLOUDY    39  27  60 NW7       30.49F WCI  34
TUNICA         CLOUDY    43  32  65 NW9       30.51F
$$

MSZ003>006-009-014>017-022>024-029>033-037>039-271900-
NORTHEAST MISSISSIPPI

CITY           SKY/WX    TMP DP  RH WIND       PRES   REMARKS
COLUMBUS AFB   CLOUDY    43  29  57 N10       30.45F
6HR MIN TEMP:  36; 6HR MAX TEMP:  43;

CORINTH        CLOUDY    43  28  56 N9        30.44S
GOLDN TRIANGLE PTSUNNY   45  30  57 NW9       30.44F
STARKVILLE     CLOUDY    43  32  65 NW6       30.46F
TUPELO         CLOUDY    42  28  57 N10       30.46F
6HR MIN TEMP:  36; 6HR MAX TEMP:  42;

$$

MSZ040-058-271900-
CENTRAL MISSISSIPPI

CITY           SKY/WX    TMP DP  RH WIND       PRES   REMARKS
JACKSON INTL   MOSUNNY   50  29  44 NW12      30.47F
6HR MIN TEMP:  40; 6HR MAX TEMP:  50;

JACKSON HAWKNS SUNNY     50  29  44 W13       30.48S
6HR MIN TEMP:  41; 6HR MAX TEMP:  50;

MERIDIAN KEY   SUNNY     50  29  44 N16       30.43F
6HR MIN TEMP:  31; 6HR MAX TEMP:  51;

MERIDIAN NAS   MOSUNNY   49  29  46 NW12G20   30.44F
6HR MIN TEMP:  34; 6HR MAX TEMP:  50;

RAYMOND        FAIR      48  45  87 NW10G18   30.49S
VICKSBURG      SUNNY     50  30  46 N9        30.52F
6HR MIN TEMP:  38; 6HR MAX TEMP:  50;

$$

MSZ059>079-271900-
SOUTH MISSISSIPPI

CITY           SKY/WX    TMP DP  RH WIND       PRES   REMARKS
BROOKHAVEN     FAIR      52  32  46 NW12G17   30.47F
HATTIESBURG    SUNNY     54  31  41 N10G20    30.43F
6HR MIN TEMP:  40; 6HR MAX TEMP:  54;

MCCOMB         SUNNY     54  29  38 N9        30.43F
6HR MIN TEMP:  42; 6HR MAX TEMP:  54;

NATCHEZ        SUNNY     50  30  46 NW13G20   30.49F
6HR MIN TEMP:  39; 6HR MAX TEMP:  52;

PINE BELT      SUNNY     54  28  37 W9        30.43F
6HR MIN TEMP:  41; 6HR MAX TEMP:  54;

$$

MSZ080>082-271900-
COASTAL MISSISSIPPI

CITY           SKY/WX    TMP DP  RH WIND       PRES   REMARKS
BILOXI         SUNNY     58  31  36 VRB7      30.38F
6HR MIN TEMP:  47; 6HR MAX TEMP:  59;

PASCAGOULA     SUNNY     58  31  35 NW10G24   30.37F
6HR MIN TEMP:  34; 6HR MAX TEMP:  59;

GULFPORT       SUNNY     58  30  34 N12       30.38F
6HR MIN TEMP:  40; 6HR MAX TEMP:  58;

$$



USA.gov is the U.S. government's official web portal to all federal, state and local government web resources and services.